This is the latest recevied weather packets stored in our database for station/object VA7IM-13. If no packets are shown the sender has not sent any weather packets the latest 1 day(s).
| Time | Temp. | Humidity | Pressure | Rain* | Wind** | Luminosity | Snow |
|---|---|---|---|---|---|---|---|
| 1778023617 | 19.44° C | - | - | 0 mm | 2.68 m/s, 203° | - | - |
| 1778023017 | 19.44° C | - | - | 0 mm | 2.24 m/s, 113° | - | - |
| 1778022718 | 19.44° C | - | - | 0 mm | 2.68 m/s, 23° | - | - |
| 1778021819 | 19.44° C | - | - | 0 mm | 4.47 m/s, 158° | - | - |
| 1778021519 | - | - | - | 0 mm | 1.79 m/s, 45° | - | - |
| 1778021219 | 20° C | - | - | 0 mm | 2.24 m/s, 113° | - | - |
| 1778020917 | 18.89° C | - | - | 0 mm | 2.68 m/s, 203° | - | - |
| 1778020617 | 19.44° C | - | - | 0 mm | 2.24 m/s, 113° | - | - |
| 1778020317 | 18.89° C | - | - | 0 mm | 3.13 m/s, 68° | - | - |
| 1778020017 | 19.44° C | - | - | 0 mm | 3.13 m/s, 225° | - | - |
| 1778019718 | 20° C | - | - | 0 mm | 2.68 m/s, 158° | - | - |
| 1778019117 | 19.44° C | - | - | 0 mm | 2.68 m/s, 113° | - | - |
| 1778018819 | 20° C | - | - | 0 mm | 2.24 m/s, 135° | - | - |
| 1778018519 | 19.44° C | - | - | 0 mm | 2.68 m/s, 113° | - | - |
| 1778017917 | 20° C | - | - | 0 mm | 4.02 m/s, 203° | - | - |
| 1778017618 | 20° C | - | - | 0 mm | 2.68 m/s, 180° | - | - |
| 1778017319 | 19.44° C | - | - | 0 mm | 3.13 m/s, 338° | - | - |
| 1778017019 | 20° C | - | - | 0 mm | 2.24 m/s, 158° | - | - |
| 1778016719 | 19.44° C | - | - | 0 mm | 3.58 m/s, 203° | - | - |
| 1778016417 | 19.44° C | - | - | 0 mm | 3.13 m/s, 180° | - | - |
| 1778016118 | 18.89° C | - | - | 0 mm | 1.79 m/s, 180° | - | - |
| 1778015818 | 18.89° C | - | - | 0 mm | 2.68 m/s, 158° | - | - |
| 1778015517 | 19.44° C | - | - | 0 mm | 3.13 m/s, 180° | - | - |
| 1778015218 | 19.44° C | - | - | 0 mm | 2.68 m/s, 113° | - | - |
| 1778014919 | 19.44° C | - | - | 0 mm | 4.02 m/s, 113° | - | - |
* Rain since midnight (hover to see other rain measurements)
** Current wind speed in m/s (hover to see current wind gust speed)